Aérodrome :
LOGIN :

S'inscrire | Disclaimer

   EN    FR    IT 

 










Légende :    VFR   VFR Marginal   IFR   IFR Intensif   IFR Très Intensif
Visi : 
Plafond : 
>= 8 km
>= 3000ft
5 à 8 km
1000 à 3000 ft
1500m à 5 km
500 à 1000 ft
800 à 1500m
200 à 500 ft
< 800m
< 200 ft
Symboles :   Orages  Brouillard  Fortes neiges  Fortes précipitations  Vent > 20 kt
SIGMETs :   Divers  Orages  Givrage  Turbulence  Onde Orograph.  Cendres Volcan.







- Altitude de l'aérodrome : 2265 ft
- Code IATA : CZL


DABC - Mohamed Boudiaf Int. Constantine

DERNIER METAR :
  • 221800Z 33004KT 9999 FEW030 12/06 Q1025

METARs EXPIRÉS :
  • 221730Z 31005KT 9999 FEW030 12/06 Q1024
  • 221700Z 33006KT 9999 FEW030 13/06 Q1024
  • 221630Z 32005KT 9999 FEW030 15/07 Q1024
  • 221600Z 31012KT 9999 FEW030 16/07 Q1024
  • 221530Z 32011KT 9999 FEW030 16/06 Q1024

TAF TAF DABC
Valide du 22 à 18h jusqu'au 23 à 18h UTC


221700Z 2218/2318 31006KT 9999 FEW033
BECMG 2221/2223 VRB02KT
Pas de NOTAMs connus pour ce terrain.



MET'MAP, la Météo Aéronautique d'un coup d'oeil ! - Copyright ORBIFLY Décembre 2007 - Disclaimer

ORBIFLY MET'MAP TEAM :

Programmation & Développement : Alexandra Zaïnal
Conception & Développement : Baudouin d'Aumeries
Co-Programmation & Développement : Marc-Olivier Méhu
Soutien technique & logistique : Manuel Goepfert

Contact : metmap@orbifly.com




SOURCES & CREDITS :

   NOAA